When you browse on this site, cookies collect data to enhance your experience and personalize the content and advertising you see.
Visit our Privacy Policy to learn more. By continuing to use the site, you agree to this use of cookies and data.
  • In Sweden
  • List of Countries
  • For 7 days
  • Water Temperature
  • Weather Map
  • Weather Widgets
  • user-avatar
    Login

    Hourly Weather Trebin

    Today, 29 March, Sunday

    Time Temperature Precipitation Wind Pressure Humidity
    00:00 +8°C° 0 mm 1 mps 746 mmHg 56%
    01:00 +7°C° 0 mm 1 mps 746 mmHg 58%
    02:00 +7°C° 0 mm 1 mps 746 mmHg 60%
    03:00 +7°C° 0 mm 1 mps 745 mmHg 62%
    04:00 +6°C° 0 mm 1 mps 745 mmHg 64%
    05:00 +5°C° 0 mm 2 mps 745 mmHg 66%
    06:00 +4°C° 0 mm 3 mps 745 mmHg 68%
    07:00 +4°C° 0 mm 4 mps 745 mmHg 70%
    08:00 +5°C° 0 mm 4 mps 746 mmHg 67%
    09:00 +6°C° 0 mm 5 mps 746 mmHg 64%
    10:00 +7°C° 0 mm 5 mps 746 mmHg 61%
    11:00 +7°C° 0.1 mm 6 mps 747 mmHg 66%
    12:00 +5°C° 0.1 mm 7 mps 747 mmHg 70%
    13:00 +5°C° 0.1 mm 7 mps 747 mmHg 75%
    14:00 +2°C° 0.4 mm 8 mps 747 mmHg 81%
    15:00 0°C° 0.4 mm 8 mps 748 mmHg 88%
    16:00 -1°C° 0.4 mm 8 mps 748 mmHg 94%
    17:00 -2°C° 0.2 mm 8 mps 749 mmHg 92%
    18:00 -2°C° 0.2 mm 8 mps 749 mmHg 91%
    19:00 -4°C° 0.2 mm 8 mps 750 mmHg 89%
    20:00 -4°C° 0.1 mm 8 mps 750 mmHg 83%
    21:00 -3°C° 0.1 mm 7 mps 751 mmHg 76%
    22:00 -3°C° 0.1 mm 6 mps 751 mmHg 70%
    23:00 -4°C° 0 mm 6 mps 751 mmHg 69%

    Tomorrow, 30 March, Monday

    Time Temperature Precipitation Wind Pressure Humidity
    00:00 -5°C° 0 mm 5 mps 752 mmHg 67%
    01:00 -5°C° 0 mm 5 mps 752 mmHg 65%
    02:00 -6°C° 0 mm 5 mps 752 mmHg 67%
    03:00 -5°C° 0 mm 4 mps 752 mmHg 69%
    04:00 -5°C° 0 mm 4 mps 752 mmHg 71%
    05:00 -5°C° 0 mm 4 mps 752 mmHg 67%
    06:00 -5°C° 0 mm 5 mps 753 mmHg 63%
    07:00 -5°C° 0 mm 5 mps 753 mmHg 59%
    08:00 -2°C° 0 mm 5 mps 753 mmHg 52%
    09:00 -1°C° 0 mm 5 mps 753 mmHg 46%
    10:00 0°C° 0 mm 5 mps 753 mmHg 40%
    11:00 +1°C° 0 mm 5 mps 753 mmHg 40%
    12:00 +1°C° 0 mm 5 mps 753 mmHg 40%
    13:00 +2°C° 0 mm 5 mps 752 mmHg 40%
    14:00 +2°C° 0.1 mm 5 mps 752 mmHg 42%
    15:00 +2°C° 0.1 mm 5 mps 752 mmHg 45%
    16:00 +1°C° 0.1 mm 5 mps 752 mmHg 47%
    17:00 0°C° 0.1 mm 4 mps 752 mmHg 53%
    18:00 0°C° 0.1 mm 3 mps 753 mmHg 59%
    19:00 -1°C° 0.1 mm 2 mps 753 mmHg 66%
    20:00 -1°C° 0 mm 2 mps 753 mmHg 67%
    21:00 -1°C° 0 mm 2 mps 753 mmHg 68%
    22:00 0°C° 0 mm 1 mps 754 mmHg 70%
    23:00 -2°C° 0 mm 2 mps 754 mmHg 73%

    Day after tomorrow, 31 March, Tuesday

    Time Temperature Precipitation Wind Pressure Humidity
    00:00 -2°C° 0 mm 2 mps 754 mmHg 76%
    01:00 -3°C° 0 mm 2 mps 754 mmHg 79%
    02:00 -3°C° 0 mm 2 mps 754 mmHg 83%
    03:00 -3°C° 0 mm 2 mps 755 mmHg 86%
    04:00 -5°C° 0 mm 3 mps 755 mmHg 90%
    05:00 -4°C° 0 mm 3 mps 755 mmHg 83%
    06:00 -2°C° 0 mm 3 mps 755 mmHg 77%
    07:00 -2°C° 0 mm 3 mps 756 mmHg 70%
    08:00 -1°C° 0 mm 2 mps 756 mmHg 61%
    09:00 +2°C° 0 mm 2 mps 756 mmHg 52%
    10:00 +3°C° 0 mm 2 mps 756 mmHg 43%
    11:00 +3°C° 0 mm 2 mps 756 mmHg 40%
    12:00 +4°C° 0 mm 2 mps 756 mmHg 37%
    13:00 +5°C° 0 mm 2 mps 756 mmHg 34%
    14:00 +5°C° 0 mm 2 mps 755 mmHg 35%
    15:00 +5°C° 0 mm 2 mps 755 mmHg 35%
    16:00 +4°C° 0 mm 2 mps 755 mmHg 35%
    17:00 +3°C° 0 mm 2 mps 755 mmHg 41%
    18:00 +1°C° 0 mm 2 mps 755 mmHg 47%
    19:00 -1°C° 0 mm 2 mps 755 mmHg 53%
    20:00 -2°C° 0 mm 2 mps 755 mmHg 58%
    21:00 -2°C° 0 mm 2 mps 755 mmHg 63%
    22:00 -2°C° 0 mm 2 mps 754 mmHg 68%
    23:00 -3°C° 0 mm 2 mps 754 mmHg 70%

    1 April, Wednesday

    Time Temperature Precipitation Wind Pressure Humidity
    00:00 -3°C° 0 mm 2 mps 754 mmHg 72%
    01:00 -4°C° 0 mm 3 mps 753 mmHg 74%
    02:00 -4°C° 0 mm 3 mps 753 mmHg 71%
    03:00 -4°C° 0 mm 4 mps 752 mmHg 69%
    04:00 -4°C° 0 mm 4 mps 752 mmHg 67%
    05:00 -4°C° 0 mm 5 mps 751 mmHg 62%
    06:00 -2°C° 0 mm 5 mps 751 mmHg 57%
    07:00 -3°C° 0 mm 6 mps 751 mmHg 52%
    08:00 -1°C° 0 mm 7 mps 750 mmHg 49%
    09:00 0°C° 0 mm 7 mps 749 mmHg 47%
    10:00 +2°C° 0 mm 7 mps 749 mmHg 45%
    11:00 +3°C° 0 mm 7 mps 748 mmHg 48%
    12:00 +3°C° 0 mm 7 mps 748 mmHg 52%
    13:00 +4°C° 0 mm 7 mps 748 mmHg 56%
    14:00 +4°C° 0 mm 7 mps 747 mmHg 59%
    15:00 +3°C° 0 mm 6 mps 747 mmHg 62%
    16:00 +3°C° 0 mm 6 mps 746 mmHg 65%
    17:00 +2°C° 0 mm 5 mps 746 mmHg 74%
    18:00 +2°C° 0 mm 5 mps 746 mmHg 83%
    19:00 +1°C° 0 mm 4 mps 746 mmHg 92%
    20:00 +1°C° 0 mm 4 mps 745 mmHg 90%
    21:00 +1°C° 0 mm 4 mps 745 mmHg 89%
    22:00 +1°C° 0 mm 5 mps 745 mmHg 88%
    23:00 +1°C° 0 mm 5 mps 745 mmHg 89%

    2 April, Thursday

    Time Temperature Precipitation Wind Pressure Humidity
    00:00 +1°C° 0 mm 5 mps 744 mmHg 89%
    01:00 +1°C° 0 mm 5 mps 744 mmHg 89%
    02:00 +1°C° 0.1 mm 5 mps 744 mmHg 90%
    03:00 +1°C° 0.1 mm 5 mps 744 mmHg 91%
    04:00 +1°C° 0.1 mm 5 mps 743 mmHg 92%
    05:00 +1°C° 0 mm 5 mps 743 mmHg 91%
    06:00 +1°C° 0 mm 5 mps 744 mmHg 89%
    07:00 0°C° 0 mm 5 mps 744 mmHg 87%
    08:00 +1°C° 0 mm 5 mps 744 mmHg 85%
    09:00 +2°C° 0 mm 5 mps 744 mmHg 82%
    10:00 +2°C° 0 mm 5 mps 744 mmHg 80%
    11:00 +2°C° 0 mm 5 mps 744 mmHg 82%
    12:00 +3°C° 0 mm 5 mps 744 mmHg 83%
    13:00 +3°C° 0 mm 5 mps 744 mmHg 85%
    14:00 +3°C° 0.1 mm 5 mps 744 mmHg 87%
    15:00 +3°C° 0.1 mm 5 mps 744 mmHg 89%
    16:00 +2°C° 0.1 mm 6 mps 743 mmHg 91%
    17:00 +2°C° 0.1 mm 6 mps 743 mmHg 91%
    18:00 +2°C° 0.1 mm 5 mps 744 mmHg 91%
    19:00 +2°C° 0.1 mm 5 mps 744 mmHg 91%
    20:00 +2°C° 0.1 mm 5 mps 744 mmHg 90%
    21:00 +3°C° 0.1 mm 5 mps 744 mmHg 90%
    22:00 +3°C° 0.1 mm 5 mps 744 mmHg 90%
    23:00 +2°C° 0 mm 5 mps 744 mmHg 89%

    3 April, Friday

    Time Temperature Precipitation Wind Pressure Humidity
    00:00 +2°C° 0 mm 5 mps 744 mmHg 89%
    01:00 +2°C° 0 mm 5 mps 743 mmHg 88%
    02:00 +2°C° 0 mm 6 mps 743 mmHg 88%
    03:00 +2°C° 0 mm 6 mps 743 mmHg 89%
    04:00 +2°C° 0 mm 6 mps 742 mmHg 89%
    05:00 +2°C° 0 mm 6 mps 742 mmHg 88%
    06:00 +2°C° 0 mm 7 mps 742 mmHg 88%
    07:00 +2°C° 0 mm 7 mps 742 mmHg 87%
    08:00 +2°C° 0 mm 8 mps 742 mmHg 80%
    09:00 +3°C° 0 mm 9 mps 741 mmHg 73%
    10:00 +6°C° 0 mm 9 mps 741 mmHg 66%
    11:00 +6°C° 0 mm 9 mps 741 mmHg 63%
    12:00 +7°C° 0 mm 9 mps 740 mmHg 61%
    13:00 +7°C° 0 mm 10 mps 740 mmHg 59%
    14:00 +7°C° 0 mm 9 mps 740 mmHg 60%
    15:00 +6°C° 0 mm 9 mps 740 mmHg 61%
    16:00 +6°C° 0 mm 9 mps 740 mmHg 63%
    17:00 +5°C° 0 mm 8 mps 740 mmHg 67%
    18:00 +4°C° 0 mm 7 mps 741 mmHg 72%
    19:00 +3°C° 0 mm 5 mps 741 mmHg 76%
    20:00 +3°C° 0 mm 5 mps 742 mmHg 79%
    21:00 +3°C° 0 mm 4 mps 742 mmHg 81%
    22:00 +1°C° 0 mm 4 mps 743 mmHg 83%
    23:00 +1°C° 0 mm 4 mps 743 mmHg 84%
    Show more